GSAT-7A

Last updated on Thu Nov 21 2024 00:02:44 GMT+0000 (Coordinated Universal Time)

1 43864U 18105A 24325.09332483 .00000027 00000+0 00000+0 0 9995 2 43864 0.0119 330.5022 0002735 263.9896 281.4873 1.00273513 21696
UTC large
Height (km)
Speed (km/s)
/
Latitude / Longitude
Inclination (degrees)
Orbital Period (minutes)
Azimuth
Elevation
Range (km)
Doppler Factor

Next 0 passes for location: London (51.5072 / 0.1276)

Sorry there are no passes over London.